(216648) = 2003 SY206

Discovered at Socorro on 2003-09-26 by LINEAR.

Orbit

Orbit type: Main Belt

Note: WebGL enabled browser required.

epoch2023-09-13.0
epoch JD2460200.5
perihelion date2020-11-30.11347
perihelion JD2459183.61347
argument of perihelion (°)37.95358
ascending node (°)6.79563
inclination (°)4.58898
eccentricity0.0482049
perihelion distance (AU)2.4760620
Tisserand w.r.t. Jupiter3.4
ΔV w.r.t. Earth (km/sec)9.9
semimajor axis (AU)2.6014654
mean anomaly (°)238.86321
mean daily motion (°/day)0.23489660
aphelion distance (AU)2.727
period (years)4.2
P-vector [x]0.71042835
P-vector [y]0.62454259
P-vector [z]0.32440425
Q-vector [x]-0.70370586
Q-vector [y]0.62419400
Q-vector [z]0.33938167
absolute magnitude16.48
phase slope0.15
uncertainty0
referenceMPEC 2023-X132
observations used398
oppositions15
arc length (days)8261
first opposition used1999
last opposition used2022
residual rms (arc-secs)0.74
perturbers coarse indicatorM-v
perturbers precise indicator003Ek
first observation date used1999-10-13.0
last observation date used2022-05-26.0
computer nameMPCLINUX
JD of orbit computation2456937.260715
perihelion JD uncertainty (days)3.4064E-04
argument of perihelion uncertainty (°)9.2405E-05
ascending node uncertainty (°)5.6363E-05
inclination uncertainty (°)7.1126E-06
eccentricity uncertainty 5.5609E-08
perihelion distance uncertainty (AU)1.4799E-07
Minimum Orbit Intersection Distances (in AU)
for orbit epoch: 2460200.5, reference: E2023-XD2
Mercury2.14942
Venus1.75616
Earth1.48494
Mars0.93261
Jupiter2.4446
Saturn6.54683
Uranus15.7765
Neptune27.3589

Observations

402 total observations over interval: 1999 10 13.33560 – 2022 05 26.182843
These data are available for download (format description).

Date (UT) J2000 RA J2000 Dec Magn Location Ref
1999 10 13.33560 02 22 48.49 +17 27 50.8 19.7   704 – Lincoln Laboratory ETS, New Mexico MPS 126770
1999 10 13.35124 02 22 47.61 +17 27 48.7 19.6   704 – Lincoln Laboratory ETS, New Mexico MPS 126770
1999 10 13.36721 02 22 46.84 +17 27 47.0 20.3   704 – Lincoln Laboratory ETS, New Mexico MPS 126770
1999 10 13.38285 02 22 45.96 +17 27 45.8 20.2   704 – Lincoln Laboratory ETS, New Mexico MPS 126770
1999 10 13.39895 02 22 45.15 +17 27 44.2 19.6   704 – Lincoln Laboratory ETS, New Mexico MPS 126770
2003 09 21.38672 00 50 11.40 +05 25 09.6 20.1 V 691 – Steward Observatory, Kitt Peak-Spacewatch MPS 87085
2003 09 21.41296 00 50 10.04 +05 25 04.7 20.1 V 691 – Steward Observatory, Kitt Peak-Spacewatch MPS 87085
2003 09 21.43952 00 50 08.67 +05 25 00.0 20.1 V 691 – Steward Observatory, Kitt Peak-Spacewatch MPS 87085
2003 09 26.23329 00 46 02.04 +05 09 39.1 18.9   704 – Lincoln Laboratory ETS, New Mexico MPS 86342
2003 09 26.24580 00 46 01.31 +05 09 36.8 19.0   704 – Lincoln Laboratory ETS, New Mexico MPS 86342
2003 09 26.25845 00 46 00.67 +05 09 34.5 19.4   704 – Lincoln Laboratory ETS, New Mexico MPS 86342
2003 09 26.27110 00 46 00.02 +05 09 31.1 19.6   704 – Lincoln Laboratory ETS, New Mexico MPS 86342
2003 09 26.28375 00 45 59.28 +05 09 29.2 19.5   704 – Lincoln Laboratory ETS, New Mexico MPS 86342
2003 09 27.31531 00 45 04.16 +05 05 58.5 19.9 V 691 – Steward Observatory, Kitt Peak-Spacewatch MPS 86342
2003 09 27.34353 00 45 02.58 +05 05 52.6 19.8 V 691 – Steward Observatory, Kitt Peak-Spacewatch MPS 86342
2003 09 27.37369 00 45 00.91 +05 05 46.3 20.0 V 691 – Steward Observatory, Kitt Peak-Spacewatch MPS 86342
2003 09 29.23261 00 43 20.76 +04 59 18.2 19.9   704 – Lincoln Laboratory ETS, New Mexico MPS 87085
2003 09 29.25824 00 43 19.26 +04 59 12.0 19.7   704 – Lincoln Laboratory ETS, New Mexico MPS 87085
2003 09 29.28330 00 43 17.82 +04 59 07.0 20.1   704 – Lincoln Laboratory ETS, New Mexico MPS 87085
2003 10 21.19200 00 24 07.42 +03 43 20.4 19.8   644 – Palomar Mountain/NEAT MPS 88245
2003 10 21.21334 00 24 06.44 +03 43 16.7 19.5   644 – Palomar Mountain/NEAT MPS 88245
2003 10 21.23484 00 24 05.38 +03 43 13.0 19.6   644 – Palomar Mountain/NEAT MPS 88245
2003 10 23.22383 00 22 37.27 +03 37 35.9 19.5   704 – Lincoln Laboratory ETS, New Mexico MPS 88245
2003 10 23.23597 00 22 36.75 +03 37 33.7 19.9   704 – Lincoln Laboratory ETS, New Mexico MPS 88245
2003 10 23.24870 00 22 36.03 +03 37 30.9 19.8   704 – Lincoln Laboratory ETS, New Mexico MPS 88245
2003 10 23.26061 00 22 35.64 +03 37 29.3 19.7   704 – Lincoln Laboratory ETS, New Mexico MPS 88245
2003 10 28.19876 00 19 18.23 +03 25 20.6 20.1 C 704 – Lincoln Laboratory ETS, New Mexico MPS 291445
2003 10 28.21218 00 19 17.81 +03 25 18.9 19.1 C 704 – Lincoln Laboratory ETS, New Mexico MPS 291445
2003 10 28.24965 00 19 16.30 +03 25 12.2 19.2 C 704 – Lincoln Laboratory ETS, New Mexico MPS 291445
2005 01 15.44578 09 26 55.31 +21 28 54.3 20.0 V 691 – Steward Observatory, Kitt Peak-Spacewatch MPS 126378
2005 01 15.47203 09 26 53.99 +21 29 00.2 20.2 V 691 – Steward Observatory, Kitt Peak-Spacewatch MPS 126378
2005 01 15.53492 09 26 50.88 +21 29 14.3 20.2 V 691 – Steward Observatory, Kitt Peak-Spacewatch MPS 126378
2005 02 03.30093 09 09 06.51 +22 37 59.3 19.9   704 – Lincoln Laboratory ETS, New Mexico MPS 126378
2005 02 03.31810 09 09 05.36 +22 38 03.0 20.3   704 – Lincoln Laboratory ETS, New Mexico MPS 126378
2005 02 03.33057 09 09 04.62 +22 38 04.7 20.4   704 – Lincoln Laboratory ETS, New Mexico MPS 126378
2005 02 03.34302 09 09 03.83 +22 38 07.8 19.6   704 – Lincoln Laboratory ETS, New Mexico MPS 126378
2005 02 09.22601 09 03 05.73 +22 54 44.9 19.5 R 699 – Lowell Observatory-LONEOS MPS 126770
2005 02 09.24065 09 03 04.76 +22 54 47.7   699 – Lowell Observatory-LONEOS MPS 126770
2005 02 09.25524 09 03 03.99 +22 54 49.7   699 – Lowell Observatory-LONEOS MPS 126770
2005 02 09.26984 09 03 02.94 +22 54 52.0   699 – Lowell Observatory-LONEOS MPS 126770
2005 03 10.17792 08 41 32.89 +23 12 47.8 19.4 R G96 – Mt. Lemmon Survey MPS 127952
2005 03 10.18052 08 41 32.81 +23 12 47.6 19.7 R G96 – Mt. Lemmon Survey MPS 127952
2005 03 10.18312 08 41 32.74 +23 12 47.3 19.8 R G96 – Mt. Lemmon Survey MPS 127952
2005 03 10.18701 08 41 32.64 +23 12 47.0 19.4 R G96 – Mt. Lemmon Survey MPS 127952
2005 03 10.18832 08 41 32.59 +23 12 46.8 19.9 R G96 – Mt. Lemmon Survey MPS 127952
2005 03 10.19351 08 41 32.47 +23 12 46.3 19.7 R G96 – Mt. Lemmon Survey MPS 127952
2005 03 10.20001 08 41 32.31 +23 12 46.1 19.4 R G96 – Mt. Lemmon Survey MPS 127952
2005 03 11.11469 08 41 12.19 +23 11 35.2 20.4 V 691 – Steward Observatory, Kitt Peak-Spacewatch MPS 127952
2005 03 11.13085 08 41 11.82 +23 11 33.8 20.5 V 691 – Steward Observatory, Kitt Peak-Spacewatch MPS 127952
2005 03 11.14691 08 41 11.44 +23 11 32.7 20.6 V 691 – Steward Observatory, Kitt Peak-Spacewatch MPS 127952
2007 09 03.28026 23 18 18.43 -07 39 16.2 19.4 V 703 – Catalina Sky Survey MPS 214416
2007 09 03.28744 23 18 18.10 -07 39 18.7 19.8 V 703 – Catalina Sky Survey MPS 214416
2007 09 03.29462 23 18 17.60 -07 39 19.0 19.2 V 703 – Catalina Sky Survey MPS 214416
2007 09 03.30179 23 18 17.20 -07 39 19.8 19.4 V 703 – Catalina Sky Survey MPS 214416
2007 09 09.32247 23 12 52.19 -08 02 03.1 18.8 R 699 – Lowell Observatory-LONEOS MPS 215086
2007 09 09.34527 23 12 50.84 -08 02 08.1   699 – Lowell Observatory-LONEOS MPS 215086
2007 09 09.36796 23 12 49.68 -08 02 11.4   699 – Lowell Observatory-LONEOS MPS 215086
2007 09 09.39063 23 12 48.40 -08 02 16.8   699 – Lowell Observatory-LONEOS MPS 215086
2007 09 11.32150 23 11 02.94 -08 09 23.4 19.5 V G96 – Mt. Lemmon Survey MPS 215086
2007 09 11.32821 23 11 02.58 -08 09 24.8 19.6 V G96 – Mt. Lemmon Survey MPS 215086
2007 09 11.33499 23 11 02.18 -08 09 26.3 19.3 V G96 – Mt. Lemmon Survey MPS 215086
2007 09 11.34181 23 11 01.78 -08 09 27.9 19.5 V G96 – Mt. Lemmon Survey MPS 215086
2007 09 14.24735 23 08 23.82 -08 19 45.6 20.1   704 – Lincoln Laboratory ETS, New Mexico MPS 216142
2007 09 14.25904 23 08 23.18 -08 19 47.9 20.0   704 – Lincoln Laboratory ETS, New Mexico MPS 216142
2007 09 14.27073 23 08 22.59 -08 19 51.6 20.1   704 – Lincoln Laboratory ETS, New Mexico MPS 216142
2007 09 14.28249 23 08 21.77 -08 19 52.7 19.5   704 – Lincoln Laboratory ETS, New Mexico MPS 216142
2007 10 19.16139 22 46 14.59 -09 12 37.4 20.4 V G96 – Mt. Lemmon Survey MPS 220410
2007 10 19.16897 22 46 14.44 -09 12 37.0 20.9 V G96 – Mt. Lemmon Survey MPS 220410
2007 10 19.17668 22 46 14.34 -09 12 36.4 20.4 V G96 – Mt. Lemmon Survey MPS 220410
2007 10 19.18440 22 46 14.23 -09 12 36.0 20.4 V G96 – Mt. Lemmon Survey MPS 220410
2008 12 05.31167 08 02 27.31 +27 19 39.6 20.6 V G96 – Mt. Lemmon Survey MPS 267458
2008 12 05.31840 08 02 27.16 +27 19 40.7 20.5 V G96 – Mt. Lemmon Survey MPS 267458
2008 12 05.32517 08 02 26.98 +27 19 41.8 20.4 V G96 – Mt. Lemmon Survey MPS 267458
2008 12 05.33189 08 02 26.77 +27 19 43.7 19.4 V G96 – Mt. Lemmon Survey MPS 267458
2008 12 31.26987 07 44 28.00 +28 40 09.7 17.9 C 704 – Lincoln Laboratory ETS, New Mexico MPS 288635
2008 12 31.28261 07 44 27.05 +28 40 11.1 19.6 C 704 – Lincoln Laboratory ETS, New Mexico MPS 288635
2008 12 31.29574 07 44 26.10 +28 40 12.8 19.5 C 704 – Lincoln Laboratory ETS, New Mexico MPS 288635
2008 12 31.30858 07 44 25.32 +28 40 15.6 19.7 C 704 – Lincoln Laboratory ETS, New Mexico MPS 288635
2008 12 31.32131 07 44 24.57 +28 40 17.9 19.7 C 704 – Lincoln Laboratory ETS, New Mexico MPS 288635
2010 03 25.40639 14 38 58.95 -18 13 16.6 21.1 V G96 – Mt. Lemmon Survey MPS 320546
2010 03 25.41303 14 38 58.70 -18 13 16.6 21.1 V G96 – Mt. Lemmon Survey MPS 320546
2010 03 25.41968 14 38 58.52 -18 13 16.7 21.0 V G96 – Mt. Lemmon Survey MPS 320546
2010 03 25.42646 14 38 58.34 -18 13 16.5 20.2 V G96 – Mt. Lemmon Survey MPS 320546
2010 04 12.474066 14 26 48.339 -17 54 49.62 20.47 r F51 – Pan-STARRS 1, Haleakala MPS 338838
2010 04 12.482849 14 26 47.873 -17 54 48.42 20.29 r F51 – Pan-STARRS 1, Haleakala MPS 338838
2010 04 17.24845 14 22 37.23 -17 43 50.8   691 – Steward Observatory, Kitt Peak-Spacewatch MPS 324773
2010 04 17.26617 14 22 36.26 -17 43 48.5   691 – Steward Observatory, Kitt Peak-Spacewatch MPS 324773
